Home   Weather   Riverview   Past weeks

Flag for Canada Past Weather in Riverview, New Brunswick, Canada — Yesterday and Last 2 Weeks

Now
23 °F

Passing clouds.


Feels Like: 10 °F
Forecast: 8 / 25 °F
Wind: 16 mph from Northwest

Location: Moncton

Current Time: Jan 17, 2017 at 11:21:04 am

Latest Report: Jan 17, 2017 at 11:00 am


Visibility: 15 mi

Pressure: 30.21 "Hg

Humidity: 54%

Dew Point: 9 °F

Location of RiverviewLocation

Past Weather in Riverview — Graph

°F

Riverview Temperature Yesterday

Maximum temperature yesterday: 32 °F (at 10:00 pm)
Minimum temperature yesterday: 1 °F (at 3:00 am)
Average temperature yesterday: 16 °F

High & Low Weather Summary for the Past Weeks

 TemperatureHumidityPressure
High46 °F (Jan 11, 3:00 pm)100% (Jan 4, 10:00 am)30.72 "Hg (Jan 4, 10:00 am)
Low-8 °F (Jan 9, 6:00 am)37% (Jan 13, 3:00 pm)29.13 "Hg (Jan 4, 2:19 pm)
Average22 °F76%30.07 "Hg
* Reported Jan 2 10:00 am — Jan 17 10:00 am, Riverview, Weather by CustomWeather, © 2017

Note: Actual official high and low records may vary slightly from our data, if they occured in-between our weather recording intervals... More about our weather records

Advertising

Riverview Weather History for the Previous 24 Hours

Scroll right to see more
 ConditionsComfort  
Time TempWeatherWind HumidityBarometerVisibility
10:00 am
Tue, Jan 17
23 °FPassing clouds.17 mph54%30.19 "Hg15 mi
9:00 am23 °FPassing clouds.15 mph68%30.14 "Hg15 mi
8:00 am23 °FPassing clouds.10 mph74%30.12 "Hg15 mi
7:00 am25 °FOvercast.12 mph69%30.09 "Hg15 mi
6:00 am27 °FOvercast.12 mph69%30.06 "Hg15 mi
5:30 am27 °FLight snow. Overcast.10 mph69%30.05 "Hg15 mi
5:00 am25 °FPassing clouds.9 mph74%30.04 "Hg15 mi
4:00 am27 °FClear.9 mph69%30.03 "Hg15 mi
3:00 am28 °FPassing clouds.14 mph64%30.02 "Hg15 mi
2:00 am28 °FPassing clouds.13 mph59%30.01 "Hg15 mi
1:00 am30 °FPassing clouds.18 mph55%30.00 "Hg15 mi
12:00 am30 °FPassing clouds.17 mph55%29.99 "Hg15 mi
11:00 pm
Mon, Jan 16
30 °FMostly cloudy.22 mph55%30.00 "Hg15 mi
10:00 pm32 °FMostly cloudy.21 mph51%30.01 "Hg15 mi
9:00 pm30 °FMostly cloudy.18 mph55%30.00 "Hg15 mi
8:00 pm28 °FMostly cloudy.9 mph74%30.01 "Hg15 mi
7:00 pm28 °FMostly cloudy.8 mph74%30.02 "Hg15 mi
6:35 pm28 °FMostly cloudy.9 mph69%30.03 "Hg15 mi
6:00 pm27 °FLight snow. Overcast.12 mph69%30.04 "Hg15 mi
5:24 pm27 °FLight snow. Overcast.14 mph64%30.07 "Hg15 mi
5:00 pm27 °FPassing clouds.17 mph59%30.07 "Hg15 mi
4:00 pm25 °FPartly sunny.12 mph54%30.11 "Hg15 mi
3:00 pm25 °FPartly sunny.13 mph42%30.12 "Hg15 mi
2:00 pm21 °FPartly sunny.13 mph42%30.17 "Hg15 mi
1:00 pm19 °FPartly sunny.15 mph42%30.22 "Hg15 mi
12:00 pm16 °FBroken clouds.12 mph48%30.27 "Hg15 mi
11:00 am9 °FBroken clouds.9 mph66%30.34 "Hg15 mi
Weather by CustomWeather, © 2017

See weather overviewHow to use our weather pages